Date String (YYYY-MM-DD hh:mm:ss) UTC,Instrument flags,Ambient pressure (hPa),Sample flow (lpm),Bypass flow (lpm),Sample temperature (°C),Ambient temperature (°C),ASC tube jacket temperature (°C),LED temperature (°C),Box temperature (°C),Sample RH (%),Span deviation,Mass concentration (μg/m³),Mass concentration (μg/m³),Mass concentration (μg/m³)
DateTimeUTC,F1_M11,P_M11,Q1_M11,Q2_M11,T1_M11,T2_M11,T3_M11,T4_M11,T5_M11,U1_M11,ZSPAN_M11,X0_M11,X2_M11,X1_M11
2022-11-19 12:00:00,,0830.4,5.00,0.00,22.0,20.6,00.0,31.0,23.8,07.0,0000.0,0003.14,0002.27,0002.07
2022-11-19 12:01:00,,0830.4,5.00,0.00,22.0,20.4,00.0,31.0,23.7,07.2,0000.0,0003.12,0002.24,0002.03
2022-11-19 12:02:00,,0830.4,5.00,0.00,22.0,20.3,00.0,31.0,23.7,07.3,0000.0,0003.05,0002.18,0001.97
2022-11-19 12:03:00,,0830.5,5.01,0.00,21.9,20.4,00.0,30.9,23.7,07.3,0000.0,0002.96,0002.12,0001.93
2022-11-19 12:04:00,,0830.5,5.00,0.00,22.0,21.4,00.0,30.9,23.9,07.2,0000.0,0002.92,0002.08,0001.88
2022-11-19 12:05:00,,0830.5,4.98,0.00,22.1,22.3,00.0,30.9,24.1,07.3,0000.0,0002.90,0002.05,0001.85
2022-11-19 12:06:00,,0830.5,5.00,0.00,22.2,22.1,00.0,30.9,24.1,07.3,0000.0,0002.89,0002.03,0001.82
2022-11-19 12:07:00,,0830.5,5.01,0.00,22.2,21.7,00.0,31.0,24.1,07.5,0000.0,0002.79,0001.98,0001.78
2022-11-19 12:08:00,,0830.5,4.98,0.00,22.2,21.3,00.0,31.0,24.0,07.6,0000.0,0002.66,0001.91,0001.73
2022-11-19 12:09:00,,0830.5,4.99,0.00,22.1,21.0,00.0,31.0,23.9,07.5,0000.0,0002.51,0001.83,0001.69
2022-11-19 12:10:00,,0830.5,5.00,0.00,22.1,20.8,00.0,31.0,23.9,07.4,0000.0,0002.38,0001.80,0001.65
2022-11-19 12:11:00,,0830.5,5.00,0.00,22.1,20.6,00.0,31.0,23.8,07.3,0000.0,0002.05,0001.76,0001.61
2022-11-19 12:12:00,,0830.5,5.00,0.00,22.0,20.5,00.0,31.0,23.8,07.3,0000.0,0002.07,0001.76,0001.61
2022-11-19 12:13:00,,0830.6,4.99,0.00,22.0,20.3,00.0,31.0,23.7,07.2,0000.0,0002.09,0001.77,0001.62
2022-11-19 12:14:00,,0830.6,5.02,0.00,22.0,20.7,00.0,31.0,23.7,07.2,0000.0,0002.12,0001.78,0001.63
2022-11-19 12:15:00,,0830.6,4.99,0.00,22.1,21.8,00.0,30.9,24.0,07.1,0000.0,0002.11,0001.77,0001.63
2022-11-19 12:16:00,,0830.7,4.99,0.00,22.2,22.4,00.0,30.9,24.2,07.1,0000.0,0002.11,0001.76,0001.62
2022-11-19 12:17:00,,0830.6,5.02,0.00,22.2,22.0,00.0,31.0,24.1,07.1,0000.0,0002.10,0001.74,0001.60
2022-11-19 12:18:00,,0830.6,4.98,0.00,22.2,21.5,00.0,31.0,24.1,07.0,0000.0,0002.12,0001.72,0001.59
2022-11-19 12:19:00,,0830.6,5.00,0.00,22.2,21.2,00.0,31.0,23.9,07.0,0000.0,0002.17,0001.74,0001.60
2022-11-19 12:20:00,,0830.6,5.01,0.00,22.1,20.9,00.0,31.0,23.9,07.1,0000.0,0002.20,0001.75,0001.60
2022-11-19 12:21:00,,0830.6,5.00,0.00,22.1,20.7,00.0,31.0,23.8,07.0,0000.0,0002.19,0001.74,0001.59
2022-11-19 12:22:00,,0830.6,5.01,0.00,22.0,20.5,00.0,31.0,23.8,07.0,0000.0,0002.15,0001.72,0001.58
2022-11-19 12:23:00,,0830.6,5.01,0.00,22.0,20.4,00.0,31.0,23.7,07.0,0000.0,0002.11,0001.70,0001.57
2022-11-19 12:24:00,,0830.6,4.99,0.00,22.0,20.3,00.0,31.0,23.7,07.0,0000.0,0002.21,0001.72,0001.56
2022-11-19 12:25:00,,0830.6,5.01,0.00,22.0,21.0,00.0,30.9,23.8,07.0,0000.0,0002.20,0001.71,0001.55
2022-11-19 12:26:00,,0830.6,5.00,0.00,22.1,22.0,00.0,30.9,24.0,07.0,0000.0,0002.18,0001.70,0001.54
2022-11-19 12:27:00,,0830.6,4.98,0.00,22.2,22.1,00.0,30.9,24.2,06.9,0000.0,0002.14,0001.69,0001.54
2022-11-19 12:28:00,,0830.6,5.01,0.00,22.2,21.7,00.0,31.0,24.1,06.9,0000.0,0002.20,0001.72,0001.54
2022-11-19 12:29:00,,0830.6,5.01,0.00,22.2,21.3,00.0,31.0,24.0,06.8,0000.0,0002.19,0001.73,0001.55
2022-11-19 12:30:00,,0830.6,4.98,0.00,22.1,21.0,00.0,31.0,23.9,06.9,0000.0,0002.15,0001.72,0001.55
2022-11-19 12:31:00,,0830.7,5.00,0.00,22.1,20.7,00.0,31.0,23.9,07.1,0000.0,0002.15,0001.72,0001.55
2022-11-19 12:32:00,,0830.6,5.00,0.00,22.1,20.6,00.0,31.0,23.8,07.4,0000.0,0002.19,0001.73,0001.55
2022-11-19 12:33:00,,0830.6,5.02,0.00,22.0,20.4,00.0,31.0,23.8,07.3,0000.0,0002.31,0001.76,0001.56
2022-11-19 12:34:00,,0830.6,5.00,0.00,22.0,20.3,00.0,31.0,23.7,07.1,0000.0,0002.38,0001.80,0001.58
2022-11-19 12:35:00,,0830.5,5.00,0.00,22.0,20.4,00.0,31.0,23.7,06.9,0000.0,0002.31,0001.80,0001.61
2022-11-19 12:36:00,,0830.5,5.00,0.00,22.0,21.4,00.0,30.9,23.9,06.8,0000.0,0003.43,0001.83,0001.63
2022-11-19 12:37:00,,0830.5,4.98,0.00,22.1,22.2,00.0,30.9,24.1,06.9,0000.0,0003.77,0001.86,0001.64
2022-11-19 12:38:00,,0830.5,5.01,0.00,22.2,22.0,00.0,31.0,24.1,07.0,0000.0,0003.83,0001.85,0001.64
2022-11-19 12:39:00,,0830.5,5.00,0.00,22.2,21.5,00.0,31.0,24.0,07.0,0000.0,0003.75,0001.82,0001.64
2022-11-19 12:40:00,,0830.6,4.99,0.00,22.1,21.1,00.0,31.0,23.9,07.1,0000.0,0003.78,0001.84,0001.63
2022-11-19 12:41:00,,0830.6,5.00,0.00,22.1,20.9,00.0,31.0,23.9,07.1,0000.0,0003.76,0001.84,0001.61
2022-11-19 12:42:00,,0830.6,5.01,0.00,22.1,20.7,00.0,31.0,23.8,07.1,0000.0,0003.88,0001.82,0001.60
2022-11-19 12:43:00,,0830.6,4.99,0.00,22.0,20.5,00.0,31.0,23.7,07.1,0000.0,0003.88,0001.79,0001.59
2022-11-19 12:44:00,,0830.7,4.99,0.00,22.0,20.3,00.0,31.0,23.7,07.1,0000.0,0003.77,0001.76,0001.56
2022-11-19 12:45:00,,0830.7,5.00,0.00,22.0,20.4,00.0,31.0,23.7,07.1,0000.0,0003.68,0001.72,0001.55
2022-11-19 12:46:00,,0830.7,5.02,0.00,22.0,21.3,00.0,30.9,23.8,07.2,0000.0,0003.70,0001.69,0001.51
2022-11-19 12:47:00,,0830.7,5.00,0.00,22.1,22.1,00.0,30.9,24.1,07.2,0000.0,0003.00,0001.67,0001.48
2022-11-19 12:48:00,,0830.8,4.98,0.00,22.2,22.1,00.0,31.0,24.1,07.2,0000.0,0002.44,0001.63,0001.45
2022-11-19 12:49:00,,0830.8,5.02,0.00,22.2,21.7,00.0,31.0,24.1,07.4,0000.0,0002.46,0001.61,0001.43
2022-11-19 12:50:00,,0830.8,5.00,0.00,22.2,21.3,00.0,31.0,24.0,07.3,0000.0,0002.48,0001.60,0001.41
2022-11-19 12:51:00,,0830.7,5.00,0.00,22.1,21.1,00.0,31.0,23.9,07.1,0000.0,0002.46,0001.58,0001.40
2022-11-19 12:52:00,,0830.8,4.99,0.00,22.1,20.9,00.0,31.0,23.9,07.2,0000.0,0002.45,0001.54,0001.38
2022-11-19 12:53:00,,0830.7,4.99,0.00,22.1,20.7,00.0,31.0,23.8,07.4,0000.0,0002.31,0001.53,0001.37
2022-11-19 12:54:00,,0830.6,4.99,0.00,22.1,20.5,00.0,31.0,23.8,07.4,0000.0,0002.21,0001.51,0001.35
2022-11-19 12:55:00,,0830.6,5.02,0.00,22.0,20.4,00.0,31.0,23.8,07.4,0000.0,0002.19,0001.50,0001.35
2022-11-19 12:56:00,,0830.6,5.01,0.00,22.0,20.7,00.0,31.0,23.8,07.3,0000.0,0002.14,0001.48,0001.33
2022-11-19 12:57:00,,0830.7,5.00,0.00,22.1,21.7,00.0,30.9,24.0,07.2,0000.0,0002.11,0001.47,0001.33
2022-11-19 12:58:00,,0830.7,4.99,0.00,22.2,22.3,00.0,30.9,24.2,07.2,0000.0,0002.00,0001.45,0001.32
2022-11-19 12:59:00,,0830.7,5.00,0.00,22.2,21.9,00.0,31.0,24.1,07.3,0000.0,0001.94,0001.46,0001.32
